Flag for Australia

Past Weather in 38°00'40"S, 145°13'15"E, Australia — Yesterday and Last 2 Weeks

Now
50 °F

Partly sunny.


Feels Like: 45 °F
Forecast: 57 / 44 °F
Wind: 15 mph from South

Location: Melbourne Airport

Current Time: Aug 9, 2020 at 10:30:46 am

Latest Report: Aug 9, 2020 at 10:00 am


Visibility: N/A

Pressure: 30.09 "Hg

Humidity: 88%

Dew Point: 46 °F

Location of 38°00'40"S, 145°13'15"ELocation

Past Weather in 38°00'40"S, 145°13'15"E — Graph

°F

38°00'40"S, 145°13'15"E Temperature Yesterday

Maximum temperature yesterday: 59 °F (at 1:30 pm)
Minimum temperature yesterday: 46 °F (at 12:00 am)
Average temperature yesterday: 51 °F

High & Low Weather Summary for the Past Weeks

 TemperatureHumidityPressure
High63 °F (Aug 2, 2:00 pm)100% (Jul 26, 12:30 am)30.39 "Hg (Jul 26, 12:30 am)
Low34 °F (Aug 7, 3:00 am)42% (Jul 31, 12:30 pm)29.89 "Hg (Aug 3, 11:00 pm)
Average48 °F81%30.11 "Hg
* Reported Jul 25 9:00 am — Aug 9 9:14 am, 38°00'40"S, 145°13'15"E. Weather by CustomWeather, © 2020

Note: Actual official high and low records may vary slightly from our data, if they occured in-between our weather recording intervals... More about our weather records

38°00'40"S, 145°13'15"E Weather History for the Previous 24 Hours

Scroll right to see more
 ConditionsComfort  
Time TempWeatherWind HumidityBarometerVisibility
9:14 am
Sun, Aug 9
50 °FPartly sunny.15 mph88%30.09 "HgN/A
8:30 am48 °FPassing clouds.10 mph87%30.09 "HgN/A
8:00 am46 °FScattered clouds.6 mph93%30.09 "HgN/A
7:30 am46 °FPartly sunny.9 mph93%30.09 "HgN/A
7:00 am46 °FPartly cloudy.10 mph93%30.09 "HgN/A
6:30 am46 °FPassing clouds.13 mph93%30.07 "HgN/A
6:00 am46 °FPassing clouds.12 mph93%30.07 "HgN/A
5:30 am45 °FPassing clouds.9 mph93%30.07 "HgN/A
5:00 am46 °FPassing clouds.13 mph93%30.07 "HgN/A
4:30 am46 °FPassing clouds.10 mph93%30.04 "HgN/A
4:00 am46 °FPassing clouds.8 mph93%30.04 "HgN/A
3:30 am46 °FPassing clouds.8 mph93%30.04 "HgN/A
3:00 am46 °FPassing clouds.7 mph93%30.04 "HgN/A
2:30 am48 °FPassing clouds.10 mph94%30.04 "HgN/A
2:00 am48 °FPartly cloudy.8 mph94%30.04 "HgN/A
1:30 am50 °FPassing clouds.8 mph94%30.04 "HgN/A
1:00 am50 °FSprinkles. Partly cloudy.6 mph94%30.04 "HgN/A
12:30 am50 °FPassing clouds.8 mph94%30.04 "HgN/A
12:00 am50 °FPassing clouds.6 mph94%30.04 "HgN/A
11:30 pm
Sat, Aug 8
50 °FPassing clouds.8 mph94%30.04 "HgN/A
11:00 pm50 °FPartly cloudy.8 mph94%30.04 "HgN/A
10:30 pm52 °FPartly cloudy.7 mph88%30.04 "HgN/A
10:00 pm52 °FPassing clouds.9 mph88%30.04 "HgN/A
9:30 pm52 °FPartly cloudy.9 mph88%30.04 "HgN/A
9:00 pm52 °FPartly cloudy.10 mph88%30.04 "HgN/A
8:30 pm52 °FPartly cloudy.9 mph88%30.04 "HgN/A
8:00 pm54 °FPassing clouds.8 mph82%30.01 "HgN/A
7:30 pm54 °FClear.10 mph77%30.01 "Hg10 mi
7:00 pm54 °FClear.10 mph77%30.01 "Hg10 mi
6:30 pm55 °FPartly cloudy.10 mph72%30.01 "HgN/A
6:00 pm55 °FPassing clouds.13 mph77%29.98 "HgN/A
5:30 pm55 °FPartly sunny.12 mph77%29.98 "HgN/A
5:00 pm55 °FPartly sunny.14 mph77%29.98 "HgN/A
4:30 pm57 °FPartly sunny.13 mph72%29.95 "HgN/A
4:00 pm59 °FScattered clouds.13 mph63%29.98 "HgN/A
3:30 pm59 °FScattered clouds.12 mph63%29.98 "HgN/A
3:00 pm57 °FPassing clouds.13 mph67%29.95 "HgN/A
2:30 pm59 °FScattered clouds.13 mph63%29.98 "HgN/A
2:00 pm57 °FScattered clouds.13 mph67%29.98 "HgN/A
1:30 pm59 °FSprinkles. Broken clouds.10 mph63%29.98 "HgN/A
1:00 pm57 °FBroken clouds.12 mph67%29.98 "HgN/A
12:30 pm57 °FSprinkles. Broken clouds.10 mph67%29.98 "HgN/A
12:00 pm55 °FSprinkles. Partly sunny.9 mph77%30.01 "HgN/A
11:30 am54 °FPartly sunny.9 mph82%30.01 "HgN/A
11:00 am54 °FPartly sunny.8 mph77%30.01 "HgN/A
10:00 am50 °FLight rain. Partly sunny.8 mph88%30.01 "HgN/A
Weather by CustomWeather, © 2020

See weather overview